Regional Weather Roundup
Issued by NWS

Home | Current Version | Previous Version | Text Only | Print | Product List | Glossary On
Versions: 1 2 3 4 5 6 7 8 9 10 11 12 13 14 15 16 17 18 19 20 21 22 23 24 25 26 27 28 29 30 31 32 33 34 35 36 37 38 39 40 41 42 43 44 45 46 47 48 49 50
000
ASUS46 KLOX 062112
RWRCA

SOUTHERN CALIFORNIA WEATHER ROUNDUP
NATIONAL WEATHER SERVICE OXNARD CALIFORNIA
100 PM PST FRI MAR 06 2015

NOTE: "FAIR" INDICATES FEW OR NO CLOUDS BELOW 12,000 FEET WITH NO
SIGNIFICANT WEATHER AND/OR OBSTRUCTIONS TO VISIBILITY.

  -  STATIONS PRECEEDED BY AN ASTERISK (*) ARE NOT NWS OR FAA
     STATIONS AND ARE NOT SUBJECT TO NWS AND FAA QUALITY CONTROL.

CAZ041-042-087-062200-
LA AND ORANGE COUNTY COASTAL AREAS


CITY           SKY/WX    TMP DP  RH WIND       PRES   REMARKS
L.A. DOWNTOWN  SUNNY     82  22  11 CALM      30.04F
L.A. AIRPORT   SUNNY     79  14   8 W8        30.05F
LONG BEACH     SUNNY     83  15   8 VRB3      30.05F

CITY           SKY/WX    TMP DP  RH WIND       PRES   REMARKS
AVALON           N/A    N/A N/A N/A MISG        N/A
FULLERTON      SUNNY     85  16   7 CALM      30.03F
*GETTY CENTER    N/A    N/A N/A N/A SW8         N/A
HAWTHORNE      SUNNY     82  10   6 VRB3      30.05F
*REDONDO BEACH   N/A     83  25  12 CALM      30.05F
SANTA ANA      SUNNY     88   8   5 NE16G25   30.03F
STA MONICA APT SUNNY     80  22  11 SW10      30.06F
*STA MON PIER    N/A     67  42  39 NE5       30.05F
TORRANCE       SUNNY     84  25  11 W12       30.06F
*UCLA            N/A     77  19  11 SW8       30.03F

$$

CAZ547-548-048-062200-
LA COUNTY VALLEYS AND INLAND EMPIRE


CITY           SKY/WX    TMP DP  RH WIND       PRES   REMARKS
BURBANK        SUNNY     82  19   9 VRB3      30.06F
VAN NUYS       SUNNY     80  22  11 N18G29    30.07F

CITY           SKY/WX    TMP DP  RH WIND       PRES   REMARKS
CORONA AIRPORT CLEAR     83  17   8 NE17G29   30.07F
*CHATSWORTH      N/A     77  26  15 NE12      30.07F
CHINO          SUNNY     82  21  10 NE8G25    30.06F
*CLAREMONT       N/A     78  19  11 S3          N/A
MARCH AFB      SUNNY     77  19  11 VRB7      30.09F
*NORTHRIDGE      N/A     77  16  10 N10G20      N/A
ONTARIO        SUNNY     82  15   8 N22G29    30.06F
*PASADENA        N/A     81  27  13 E5          N/A
POMONA         SUNNY     77  23  13 CALM      30.09F
RIVERSIDE      SUNNY     80  15   8 N13G25    30.07F
SAN BERNARDINO SUNNY     77  19  11 CALM      30.07F
*SAN GABRIEL     N/A     81  11   7 CALM      30.00F
*WHITEMAN AP   SUNNY     79  16   9 N14G25    30.11F
*WOODLAND HILL   N/A     79  21  11 N12         N/A

$$

CAZ054-055-062200-
LA AND SAN BERNARDINO COUNTY MOUNTAINS


CITY           SKY/WX    TMP DP  RH WIND       PRES   REMARKS
*ACTON           N/A     66  17  15 N14G28      N/A
*BIG BEAR AIRP CLEAR     46   0  14 E9        30.31F
*BIG PINES       N/A     48  10  21 SE7G20      N/A
MT WILSON NWS    N/A    N/A N/A N/A MISG        N/A
SANDBERG       SUNNY     63  17  17 E17G32    30.26F

$$

CAZ028-029-059-060-099-062200-
ANTELOPE VALLEY AND SURROUNDING AREAS


CITY           SKY/WX    TMP DP  RH WIND       PRES   REMARKS
LANCASTER      SUNNY     70  19  14 E20G26    30.22F
PALMDALE       SUNNY     70  17  13 NE15G26   30.21F

CITY           SKY/WX    TMP DP  RH WIND       PRES   REMARKS
29 PALMS       SUNNY     70  16  12 NW9       30.25F
BARSTOW/DAGGET SUNNY     70  14  11 E9        30.21F
BISHOP         SUNNY     69  -4   5 SW3       30.28F
CHINA LAKE     SUNNY     69  20  15 SE8       30.22F
MOJAVE         FAIR      66  23  19 NE9       30.23F
NEEDLES        SUNNY     76  22  13 N17       30.14F
VICTORVILLE    MOSUNNY   70  14  11 NE16G22   30.23F

$$

CAZ039-040-062200-
VENTURA AND SANTA BARBARA COUNTY COAST


CITY           SKY/WX    TMP DP  RH WIND       PRES   REMARKS
CAMARILLO      SUNNY     83  19   9 NE28G35   30.08F
OXNARD AIRPORT SUNNY     73  39  29 W14       30.08F
*POINT MUGU    SUNNY     83  25  12 NE14G32   30.08F
SBA APT/GOLETA SUNNY     72  43  35 SW7       30.09F
*SANTA BARBARA   N/A     82  20  10 CALM      30.16F
*VENTURA         N/A     85  37  17 E6        30.11F

$$

CAZ044-045-062200-
VENTURA COUNTY VALLEYS


CITY           SKY/WX    TMP DP  RH WIND       PRES   REMARKS
*SIMI VALLEY     N/A     76  24  14 NE10      30.04F
*OJAI            N/A     83  34  17 W3        30.03F
*FILLMORE        N/A     83  40  22 E3        29.98F

$$

CAZ053-062200-
VENTURA COUNTY MOUNTAINS


CITY           SKY/WX    TMP DP  RH WIND       PRES   REMARKS
*LOCKWOOD VLY    N/A     59  18  20 MISG        N/A
*ROSE VALLEY     N/A     70  23  17 MISG        N/A

$$

CAZ034-035-036-062200-
CENTRAL COAST AND SANTA YNEZ VALLEY


CITY           SKY/WX    TMP DP  RH WIND       PRES   REMARKS
SAN LUIS OBISP SUNNY     79  41  25 VRB6      30.13F
SANTA MARIA    SUNNY     83  30  14 NW6       30.11F

CITY           SKY/WX    TMP DP  RH WIND       PRES   REMARKS
*CAL POLY SLO    N/A     75  43  31 N12G25      N/A
*LOMPOC        SUNNY     79  39  24 W13       30.12F
*PISMO BEACH     N/A     82  40  22 W2        30.11F
*SANTA YNEZ    FAIR      81  19  10 NW5       30.10F

$$

CAZ037-038-051-062200-
SAN LUIS OBISPO COUNTY INTERIOR AND CUYAMA VALLEY


CITY           SKY/WX    TMP DP  RH WIND       PRES   REMARKS
*CUYAMA          N/A     67  36  32 CALM      30.18F
PASO ROBLES    SUNNY     72  40  31 VRB3      30.19F

$$

CAZ032-033-061-062200-
SOUTHERN DESERTS


CITY           SKY/WX    TMP DP  RH WIND       PRES   REMARKS
BLYTHE         SUNNY     79  21  11 N16G23    30.07F
IMPERIAL       SUNNY     81  21  11 NE17      30.04F
PALM SPRINGS   SUNNY     82  10   6 NE12      30.12F
THERMAL        SUNNY     85   9   5 N9G16     30.06F

$$

ELSEWHERE ACROSS THE WESTERN UNITED STATES AND MEXICO


CITY           SKY/WX    TMP DP  RH WIND       PRES   REMARKS
DENVER, CO     MOSUNNY   48  23  37 S7        30.23F
GRAND CANYON,    N/A     44  18  35 NE20      30.35
HONOLULU, HI   MOSUNNY   72  57  60 N16G25    29.96S
KAHULUI, MAUI  LGT RAIN  68  64  88 NE13G26   29.98R FOG
LAKE TAHOE, CA SUNNY     54  24  31 VRB6      30.37F
LAS VEGAS, NV  SUNNY     69  18  14 CALM      30.21F
MAMMOTH LAKES, FAIR      57   1  10 SE7       30.38F
MEXICO CITY, M MOSUNNY   73  43  33 E10       30.28F
PHOENIX, AZ    SUNNY     79  15   9 NE16G26   30.03F
PORTLAND, OR   PTSUNNY   59  39  47 W5        30.39F
RENO, NV       SUNNY     61  13  15 E5        30.37F
SALT LAKE CITY MOSUNNY   54  25  32 NW8       30.41F
SAN DIEGO, CA  SUNNY     75  45  34 W10       30.03F
SAN FRANCISCO, SUNNY     65  53  65 N3        30.23F
SAN JOSE, CA   SUNNY     70  38  31 VRB3      30.22F
SEATTLE, WA    PTSUNNY   56  39  53 CALM      30.41F
TIJUANA, MEX   SUNNY     81  27  13 SE3       30.05

$$

STATION/POSITION TIME  TEMP    WIND        PRES    VSBY  WAVE
                       AIR SEA DIR/SP/G                  HT/PER
                 (UTC) (F)     (DEG/KT/KT) (MB)    (MI)  (FT/S)
POINT ARGUELLO B NOT AVBL
WEST SANTA BARBA 2100   61 61  290/  8/  8 1019.2F         4/15
POINT CONCEPTION NOT AVBL
EAST SANTA BARBA NOT AVBL
SANTA MONICA BAY 2100   67 65  260/  6/  6 1018.6F         2/15


USA.gov is the U.S. government's official web portal to all federal, state and local government web resources and services.